Miscellaneous Local Product
Issued by NWS Hastings, NE

Current Version | Previous Version | Text Only | Print | Product List | Glossary On
Versions: 1 2 3 4 5 6 7 8 9 10 11 12 13 14 15 16 17 18 19 20 21 22 23 24 25 26 27 28 29 30 31 32 33 34 35 36 37 38 39 40 41 42 43 44 45 46 47 48 49 50
000
AXUS43 KGID 282302
MISGRI

GID CWA HOURLY WEATHER ROUNDUP
NATIONAL WEATHER SERVICE HASTINGS NE
600 PM CDT SAT MAR 28 2015

NOTE: "FAIR" INDICATES FEW OR NO CLOUDS BELOW 12,000 FEET WITH NO
SIGNIFICANT WEATHER AND/OR OBSTRUCTIONS TO VISIBILITY.

...SOUTH CENTRAL NEBRASKA...

CITY           SKY/WX    TMP DP  RH WIND       PRES   REMARKS
GRAND ISLAND   SUNNY     62  34  35 SE18G25   29.95F
HASTINGS       SUNNY     64  35  34 SE14      29.93F
KEARNEY        SUNNY     66  34  30 S15G28    29.92F
ORD            SUNNY     64  32  30 S18G24    29.88F
YORK           SUNNY     57  36  44 SE16      29.98F
AURORA         SUNNY     59  33  37 SE17G23   29.96F
LEXINGTON      SUNNY     71  35  26 SE20G26   29.89F
HOLDREGE       SUNNY     67  33  27 S17G23    29.92F
HEBRON         SUNNY     62  30  29 SE16      30.00S

...NEBRASKA PANHANDLE...

CITY           SKY/WX    TMP DP  RH WIND       PRES   REMARKS
CHADRON        SUNNY     83  27  13 W18G29    29.67F
ALLIANCE       SUNNY     80  32  17 W17G23    29.76F
SCOTTSBLUFF    SUNNY     82  25  12 W25G32    29.77F
SIDNEY         SUNNY     78  24  13 W18G24    29.83F

...WESTERN AND NORTH CENTRAL NEBRASKA...

CITY           SKY/WX    TMP DP  RH WIND       PRES   REMARKS
VALENTINE      SUNNY     78  32  18 S23G31    29.71F
AINSWORTH      SUNNY     71  35  26 S26       29.77F
ONEILL         SUNNY     62  33  34 S22       29.88F
BROKEN BOW     SUNNY     70  36  28 S21       29.86F
IMPERIAL         N/A     82  27  13 SW15      29.80F
NORTH PLATTE   SUNNY     77  34  21 S18G24    29.80F
MCCOOK         SUNNY     79  34  19 S18G26    29.84F

...EASTERN NEBRASKA...

CITY           SKY/WX    TMP DP  RH WIND       PRES   REMARKS
NORFOLK        SUNNY     55  33  43 S20       29.95F
SO SIOUX CITY  SUNNY     55  27  34 S15G26    30.00F
TEKAMAH        SUNNY     55  29  36 SE26G41   30.02F
COLUMBUS       SUNNY     55  34  44 SE13      29.99F
ALBION         SUNNY     58  32  38 S17       29.94F
OMAHA EPPLEY   SUNNY     54  30  40 S20       30.04F
OFFUTT AFB     SUNNY     54  31  40 S15       30.04F
MILLARD        SUNNY     54  32  43 SE15      30.04F
LINCOLN        SUNNY     57  33  40 SE15      30.03F
NEBRASKA CITY  SUNNY     53  28  38 S15       30.06F
BEATRICE       SUNNY     56  33  41 SE13G18   30.03S
FALLS CITY     SUNNY     53  32  44 SE17      30.07F

...NORTHERN KANSAS...

CITY           SKY/WX    TMP DP  RH WIND       PRES   REMARKS
GOODLAND       SUNNY     80  20  10 SW14      29.88F
HILL CITY      SUNNY     76  37  24 SE14      29.91F
NORTON         CLEAR     73  28  19 SE15G21   29.89F
PHILLIPSBURG   SUNNY     73  36  25 SE13      29.93F
SMITH CENTER   SUNNY     66  36  32 SE14      29.95F
BELOIT         SUNNY     66  36  32 SE13G20   29.96S
HAYS           SUNNY     72  39  30 SE18      29.94F
RUSSELL        SUNNY     71  39  31 SE15      29.93F
CONCORDIA      SUNNY     64  35  34 SE16      29.98F
SALINA         SUNNY     68  37  32 SE16      29.98F
TOPEKA         SUNNY     55  33  43 E15       30.08F



USA.gov is the U.S. government's official web portal to all federal, state and local government web resources and services.